Franklin, PA

5:44 PM EDT on May 22, 2017 (GMT -0400)
Venango Regional

Weather History for KFKL - December, 2012

Change the Weather History Date:

Monday, December 17, 2012

  Actual Average Record
Temperature  
Mean Temperature 45 °F -  
Max Temperature 48 °F 37 °F 63 °F (1984)
Min Temperature 42 °F 23 °F -12 °F (1951)
Degree Days  
Heating Degree Days 20    
Moisture  
Dew Point 44 °F    
Average Humidity 91    
Maximum Humidity 100    
Minimum Humidity 87    
Precipitation  
Precipitation 0.03 in - - ()
Sea Level Pressure  
Sea Level Pressure 29.68 in    
Wind  
Wind Speed 5 mph (SSW)    
Max Wind Speed 13 mph    
Max Gust Speed 16 mph    
Visibility 6 miles    
Events      
Averages and records for this station are not official NWS values.
T = Trace of Precipitation, MM = Missing Value Source: NWS Daily Summary

Daily Weather History Graph

Daily Weather History Graph

Search for Another Location

Airport or City:

Trip Planner

Search our weather history database for the weather conditions in past years. The results will help you decide how hot, cold, wet, or windy it might be!

Date:

Astronomy

Dec. 17, 2012 Rise Set
Actual Time 7:40 AM EST 4:51 PM EST
Civil Twilight 7:08 AM EST 5:22 PM EST
Nautical Twilight 6:33 AM EST 5:57 PM EST
Astronomical Twilight 6:00 AM EST 6:31 PM EST
Moon 10:45 AM EST (12/17) 10:14 PM EST (12/17)
Length of Visible Light 10h 14m
Length of Day
9h 11m
Waxing Crescent, 24% of the Moon is Illuminated
Dec 17
Waxing Crescent
Dec 20
First Quarter
Dec 28
Full
Jan 4
Last Quarter
Jan 11
New

Hourly Weather History & Observations

Time (EST) Temp. Windchill Dew Point Humidity Pressure Visibility Wind Dir Wind Speed Gust Speed Precip Events Conditions
12:15 AM 48.2 °F - 46.4 °F 93% 29.72 in 9.0 mi SSW 8.1 mph - 0.01 in   Overcast
12:35 AM 48.2 °F - 46.4 °F 93% 29.72 in 8.0 mi WSW 6.9 mph - 0.03 in   Overcast
1:15 AM 48.2 °F - 46.4 °F 93% 29.72 in 7.0 mi West 3.5 mph - N/A   Overcast
1:35 AM 48.2 °F - 46.4 °F 93% 29.73 in 8.0 mi WSW 5.8 mph - N/A   Overcast
1:55 AM 48.2 °F - 46.4 °F 93% 29.73 in 7.0 mi SSW 3.5 mph - N/A   Overcast
2:15 AM 48.2 °F - 46.4 °F 93% 29.73 in 5.0 mi SSW 4.6 mph - N/A   Overcast
2:35 AM 48.2 °F - 46.4 °F 93% 29.74 in 5.0 mi SW 5.8 mph - N/A   Overcast
2:55 AM 48.2 °F - 46.4 °F 93% 29.74 in 5.0 mi SW 4.6 mph - N/A   Overcast
3:15 AM 46.4 °F 43.5 °F 44.6 °F 93% 29.73 in 5.0 mi SSW 5.8 mph - N/A   Overcast
3:35 AM 46.4 °F 43.5 °F 44.6 °F 93% 29.73 in 4.0 mi South 5.8 mph - N/A   Overcast
3:55 AM 44.6 °F 41.4 °F 42.8 °F 93% 29.72 in 3.0 mi South 5.8 mph - N/A   Mostly Cloudy
4:15 AM 44.6 °F 41.4 °F 42.8 °F 93% 29.72 in 1.8 mi South 5.8 mph - N/A   Mostly Cloudy
4:35 AM 44.6 °F 41.4 °F 44.6 °F 100% 29.72 in 1.2 mi SSW 5.8 mph - N/A   Overcast
4:55 AM 46.4 °F 44.3 °F 44.6 °F 93% 29.72 in 1.2 mi SW 4.6 mph - N/A   Overcast
5:15 AM 46.4 °F 42.4 °F 44.6 °F 93% 29.72 in 0.8 mi SSW 8.1 mph - N/A   Overcast
5:35 AM 44.6 °F 41.4 °F 44.6 °F 100% 29.73 in 2.5 mi WSW 5.8 mph - N/A   Overcast
5:55 AM 46.4 °F 45.2 °F 44.6 °F 93% 29.74 in 0.2 mi WSW 3.5 mph - N/A   Overcast
6:15 AM 46.4 °F 44.3 °F 44.6 °F 93% 29.74 in 0.2 mi SW 4.6 mph - N/A   Overcast
6:35 AM 46.4 °F 43.5 °F 44.6 °F 93% 29.74 in 0.5 mi SW 5.8 mph - N/A   Overcast
6:55 AM 44.6 °F 41.4 °F 44.6 °F 100% 29.74 in 4.0 mi WSW 5.8 mph - N/A   Mostly Cloudy
7:15 AM 44.6 °F 41.4 °F 42.8 °F 93% 29.76 in 6.0 mi WSW 5.8 mph - N/A   Mostly Cloudy
7:35 AM 44.6 °F 43.1 °F 42.8 °F 93% 29.74 in 5.0 mi SW 3.5 mph - N/A   Overcast
7:55 AM 44.6 °F 42.2 °F 42.8 °F 93% 29.75 in 3.0 mi SW 4.6 mph - N/A   Overcast
8:15 AM 44.6 °F 43.1 °F 42.8 °F 93% 29.75 in 2.0 mi SW 3.5 mph - N/A   Mostly Cloudy
8:35 AM 44.6 °F 42.2 °F 42.8 °F 93% 29.76 in 2.0 mi WSW 4.6 mph - N/A   Scattered Clouds
8:55 AM 44.6 °F 41.4 °F 42.8 °F 93% 29.76 in 3.0 mi West 5.8 mph - N/A   Mostly Cloudy
9:15 AM 44.6 °F 42.2 °F 42.8 °F 93% 29.76 in 4.0 mi WSW 4.6 mph - N/A   Overcast
9:35 AM 44.6 °F 43.1 °F 42.8 °F 93% 29.76 in 5.0 mi SW 3.5 mph - N/A   Mostly Cloudy
9:55 AM 46.4 °F 44.3 °F 42.8 °F 87% 29.76 in 5.0 mi WSW 4.6 mph - N/A   Overcast
10:15 AM 46.4 °F 44.3 °F 42.8 °F 87% 29.76 in 6.0 mi West 4.6 mph - N/A   Overcast
10:35 AM 46.4 °F 45.2 °F 42.8 °F 87% 29.75 in 7.0 mi WSW 3.5 mph - N/A   Overcast
10:55 AM 46.4 °F 44.3 °F 42.8 °F 87% 29.76 in 8.0 mi SW 4.6 mph - N/A   Overcast
11:15 AM 46.4 °F - 42.8 °F 87% 29.74 in 7.0 mi Calm Calm - N/A   Overcast
11:35 AM 46.4 °F - 42.8 °F 87% 29.73 in 6.0 mi Calm Calm - N/A   Overcast
11:55 AM 46.4 °F 45.2 °F 42.8 °F 87% 29.71 in 7.0 mi SSE 3.5 mph - N/A   Overcast
12:15 PM 46.4 °F - 42.8 °F 87% 29.70 in 7.0 mi Calm Calm - N/A   Overcast
12:35 PM 46.4 °F 44.3 °F 42.8 °F 87% 29.69 in 9.0 mi South 4.6 mph - N/A   Overcast
12:55 PM 46.4 °F 44.3 °F 42.8 °F 87% 29.68 in 8.0 mi SSE 4.6 mph - N/A   Overcast
1:15 PM 46.4 °F 45.2 °F 44.6 °F 93% 29.67 in 6.0 mi SSE 3.5 mph - N/A   Overcast
1:35 PM 48.2 °F - 44.6 °F 87% 29.66 in 5.0 mi Calm Calm - N/A   Overcast
1:55 PM 48.2 °F - 44.6 °F 87% 29.65 in 5.0 mi Calm Calm - N/A   Overcast
2:15 PM 48.2 °F - 44.6 °F 87% 29.64 in 5.0 mi Calm Calm - N/A   Overcast
2:35 PM 48.2 °F - 44.6 °F 87% 29.65 in 5.0 mi Calm Calm - N/A   Overcast
2:55 PM 48.2 °F - 44.6 °F 87% 29.64 in 5.0 mi Calm Calm - N/A   Overcast
3:15 PM 48.2 °F - 44.6 °F 87% 29.64 in 5.0 mi Calm Calm - N/A   Overcast
3:35 PM 48.2 °F - 44.6 °F 87% 29.64 in 4.0 mi Calm Calm - N/A   Mostly Cloudy
3:55 PM 46.4 °F - 44.6 °F 93% 29.63 in 3.0 mi Calm Calm - N/A   Overcast
4:15 PM 46.4 °F - 44.6 °F 93% 29.63 in 3.0 mi Calm Calm - N/A   Overcast
4:35 PM 46.4 °F 45.2 °F 44.6 °F 93% 29.63 in 3.0 mi East 3.5 mph - N/A   Overcast
4:55 PM 46.4 °F 44.3 °F 44.6 °F 93% 29.62 in 3.0 mi East 4.6 mph - N/A   Overcast
7:35 PM 44.6 °F 38.4 °F 42.8 °F 93% 29.57 in 10.0 mi ESE 12.7 mph - 0.02 in   Overcast
7:55 PM 44.6 °F 38.4 °F 42.8 °F 93% 29.56 in 10.0 mi ESE 12.7 mph - 0.02 in   Overcast
8:15 PM 44.6 °F 40.2 °F 41.0 °F 87% 29.54 in 10.0 mi ESE 8.1 mph 16.1 mph 0.01 in   Mostly Cloudy
8:35 PM 42.8 °F 37.5 °F 41.0 °F 93% 29.55 in 10.0 mi SE 9.2 mph - 0.01 in   Partly Cloudy
8:55 PM 44.6 °F - 41.0 °F 87% 29.56 in 10.0 mi Calm Calm - 0.01 in   Mostly Cloudy
9:15 PM 42.8 °F - 41.0 °F 93% 29.56 in 10.0 mi Calm Calm - N/A   Overcast
9:35 PM 42.8 °F 41.1 °F 41.0 °F 93% 29.55 in 10.0 mi West 3.5 mph - N/A   Overcast
9:55 PM 42.8 °F - 41.0 °F 93% 29.55 in 10.0 mi Calm Calm - N/A   Overcast
10:15 PM 42.8 °F - 41.0 °F 93% 29.54 in 10.0 mi Calm Calm - N/A   Overcast
10:35 PM 42.8 °F - 41.0 °F 93% 29.54 in 10.0 mi Calm Calm - N/A   Overcast
10:55 PM 42.8 °F - 41.0 °F 93% 29.53 in 10.0 mi Calm Calm - N/A   Overcast
11:15 PM 42.8 °F - 41.0 °F 93% 29.53 in 10.0 mi Calm Calm - N/A   Overcast
11:35 PM 42.8 °F - 39.2 °F 87% 29.53 in 10.0 mi Calm Calm - N/A   Overcast
11:55 PM 42.8 °F - 41.0 °F 93% 29.53 in 6.0 mi Calm Calm - N/A   Overcast